Regional Weather Roundup
Issued by NWS

Home | Current Version | Previous Version | Graphics & Text | Print | Product List | Glossary On
Versions: 1 2 3 4 5 6 7 8 9 10 11 12 13 14 15 16 17 18 19 20 21 22 23 24 25 26 27 28 29 30 31 32 33 34 35 36 37 38 39 40 41 42 43 44 45 46 47 48 49 50
000
ASUS43 KMPX 201810
RWRMN
WEATHER ROUNDUP FOR MINNESOTA
NATIONAL WEATHER SERVICE TWIN CITIES/CHANHASSEN MN
100 PM CDT MON APR 20 2015


NOTE: "FAIR" INDICATES FEW OR NO CLOUDS BELOW 12,000 FEET WITH NO
SIGNIFICANT WEATHER AND/OR OBSTRUCTIONS TO VISIBILITY. N/A MEANS
CURRENT SKY AND/OR WEATHER CONDITIONS ARE NOT AVAILABLE.

MNZ060>063-068>070-201900-
   Twin Cities Metro

CITY           SKY/WX    TMP DP  RH WIND       PRES   REMARKS
TWIN CITIES    CLOUDY    40  26  57 NW25G31   29.52S
6HR MIN TEMP:  37; 6HR MAX TEMP:  41;

ST PAUL        CLOUDY    40  26  57 NW23G35   29.52F
CRYSTAL        CLOUDY    41  26  55 NW21G28   29.51S
BLAINE         CLOUDY    41  28  60 W14G25    29.51S
LAKEVILLE      CLOUDY    39  27  60 NW24G31   29.52S
EDEN PRAIRIE   CLOUDY    41  26  55 NW20G26   29.52S
6HR MIN TEMP:  37; 6HR MAX TEMP:  41;

SOUTH ST PAUL  CLOUDY    41  27  57 NW17G25   29.51F
LAKE ELMO      CLOUDY    39  30  70 NW15G23   29.51S
$$
MNZ001>005-007-008-013>017-022>024-027-028-201900-
   Northwest Minnesota

CITY           SKY/WX    TMP DP  RH WIND       PRES   REMARKS
BEMIDJI        CLOUDY    31  26  80 NW25      29.48S WCI  17
HALLOCK        LGT SNOW  32  30  93 NW25G32   29.56S WCI  19
ROSEAU         CLOUDY    34  28  80 NW22G31   29.46F WCI  22
WARROAD        CLOUDY    34  28  80 NW17G26   29.45F WCI  23
THIEF RVR FALL CLOUDY    32  27  80 NW23G33   29.53F WCI  19
CROOKSTON      CLOUDY    34  30  86 N25       29.58F WCI  21
FOSSTON        LGT SNOW  30  25  80 NW25G35   29.53F WCI  16
DETROIT LAKES  PTSUNNY   34  30  86 NW17G26   29.56F WCI  23
MOORHEAD       RAIN      36  30  80 NW25G31   29.61S
PARK RAPIDS    CLOUDY    39  26  59 NW26G33   29.49F
MAHNOMEN       FLURRIES  33  28  83 NW22G28   29.54F WCI  20
$$
MNZ006-009>011-018-025>026-201900-
   North Central Minnesota

CITY           SKY/WX    TMP DP  RH WIND       PRES   REMARKS
BAUDETTE       CLOUDY    31  26  82 NW20G26   29.42F WCI  19
FLAG ISLAND    CLOUDY    34  28  80 NW21G28   29.40F WCI  22
INTL FALLS     CLOUDY    31  26  82 W16G22    29.38F WCI  20
6HR MIN TEMP:  29; 6HR MAX TEMP:  32; 6HR PCP: TRACE;

WASKISH        CLOUDY    32  27  80 W16G24    29.44F WCI  21
BIG FORK       MIX PCPN  32  27  80 NW9       29.42S WCI  24
LONGVILLE      CLOUDY    36  27  69 W13G22    29.46F
GRAND RAPIDS   CLOUDY    30  25  80 W16G25    29.42F WCI  19
ORR            CLOUDY    30  25  80 NW13G21   29.35F WCI  20
COOK           CLOUDY    30  27  86 W15G21    29.38F WCI  19
WALKER         CLOUDY    32  24  72 W20G28    29.47S WCI  20
$$
MNZ012-019>021-037-201900-
   Northeast Minnesota

CITY           SKY/WX    TMP DP  RH WIND       PRES   REMARKS
DULUTH         CLOUDY    36  28  73 NW18G26   29.35F
6HR MIN TEMP:  34; 6HR MAX TEMP:  37; 6HR PCP: TRACE;

ELY            CLOUDY    30  28  93 W13G20    29.33F FOG     WCI  20
HIBBING        CLOUDY    33  25  72 NW21G28   29.39F WCI  21
EVELETH        CLOUDY    32  28  86 W13G24    29.38F WCI  22
DULUTH HARBOR  CLOUDY    39  32  75 W22G28    29.39F
TWO HARBORS    CLOUDY    43  32  65 NW12G25   29.31F
SILVER BAY     CLOUDY    39  30  70 W9G25     29.29R
GRAND MARAIS     N/A     38  32  79 NW21G36   29.20F
G MARAIS ARPRT LGT SNOW  34  28  80 W9G18     29.22S WCI  26
$$
MNZ029>031-032-039>041-046>048-054>057-064-201900-
   West Central Minnesota

CITY           SKY/WX    TMP DP  RH WIND       PRES   REMARKS
FERGUS FALLS   CLOUDY    36  27  69 NW17G29   29.61F
WHEATON        DRIZZLE   36  32  87 W18       29.65F
MORRIS         CLOUDY    37  30  75 NW25G35   29.60F
ALEXANDRIA     CLOUDY    36  27  69 NW24G37   29.57F
ELBOW LAKE     CLOUDY    35  29  78 NW22G29   29.60F WCI  24
WADENA         CLOUDY    34  27  75 NW20G32   29.53F WCI  22
GLENWOOD       PTSUNNY   37  28  70 NW24G32   29.57F
APPLETON       SUNNY     43  30  61 NW18G25   29.63S
BENSON         CLOUDY    41  28  60 N25G31    29.61S
ORTONVILLE     CLOUDY    37  30  75 NW23G31   29.64F
MADISON        CLOUDY    39  32  75 NW23G31   29.65F
WILLMAR        FAIR      39  30  70 NW28G33   29.61R
$$
MNZ033>034-036-042>043-049>051-058-059-201900-
   Central Minnesota

CITY           SKY/WX    TMP DP  RH WIND       PRES   REMARKS
ST CLOUD       CLOUDY    40  26  57 NW21G29   29.51F
6HR MIN TEMP:  34; 6HR MAX TEMP:  41;

SAUK CENTRE    CLOUDY    38  27  63 NW26      29.55S
PAYNESVILLE    CLOUDY    37  28  70 W21G31    29.56F
AITKIN         CLOUDY    39  28  65 W12G21    29.44F
PINE RIVER     CLOUDY    36  27  69 NW17G23   29.52S
BRAINERD       CLOUDY    36  26  67 NW21G28   29.48F
STAPLES        CLOUDY    34  27  75 NW18G26   29.52S WCI  23
LONG PRAIRIE   CLOUDY    36  27  69 W21G28    29.55R
LITTLE FALLS   CLOUDY    37  27  65 W17G25    29.52S
LITCHFIELD     CLOUDY    41  28  60 NW18G28   29.56S
BUFFALO        CLOUDY    41  27  57 NW14G22   29.54F
MAPLE LAKE     CLOUDY    42  29  61 W15G22    29.54F
$$
MNZ037-044-045-052-053-201900-
   East Central Minnesota

CITY           SKY/WX    TMP DP  RH WIND       PRES   REMARKS
PRINCETON      CLOUDY    41  28  60 W18G24    29.50F
MORA           CLOUDY    37  27  65 NW18      29.47F
CAMBRIDGE      CLOUDY    41  28  60 NW15G24   29.47F
RUSH CITY      CLOUDY    39  28  63 W16       29.47F
MOOSE LAKE     CLOUDY    37  28  70 W15G23    29.41S
HINCKLEY       CLOUDY    41  30  65 W17G30    29.44F
CLOQUET        CLOUDY    37  28  70 W23G32    29.38F
MCGREGOR       CLOUDY    36  30  80 W15G22    29.45S
$$
MNZ071>073-080-081-089-090-097-098-201900-
   Southwest Minnesota

CITY           SKY/WX    TMP DP  RH WIND       PRES   REMARKS
MONTEVIDEO     CLOUDY    41  30  65 N21G31    29.63S
GRANITE FALLS  CLOUDY    40  34  81 W18G24    29.65S
CANBY          CLOUDY    39  32  76 NW14G20   29.67S
MARSHALL       CLOUDY    39  27  60 N24       29.64S
REDWOOD FALLS  CLOUDY    41  30  65 NW16G25   29.61S
OLIVIA         CLOUDY    37  28  70 NW24G33   29.60S
PIPESTONE      PTSUNNY   45  25  45 NW22G37   29.65S
WINDOM         CLOUDY    43  32  65 NW18G26   29.62F
WORTHINGTON    CLOUDY    45  25  45 NW29G35   29.65S
JACKSON        CLOUDY    45  30  57 NW21G28   29.62F
TRACY          CLOUDY    39  32  77 N23G31    29.64S
SLAYTON        CLOUDY    43  27  52 NW25G33   29.64F
$$
MNZ065>067-074>077-082>085-091>093-201900-
   South Central Minnesota

CITY           SKY/WX    TMP DP  RH WIND       PRES   REMARKS
MANKATO        CLOUDY   N/A N/A N/A NW30G39   29.56F
NEW ULM        CLOUDY    41  28  60 NW30G41   29.59R HAZE
ST JAMES       CLOUDY    43  32  65 W20G30    29.62F
FAIRMONT       CLOUDY    41  28  60 NW18      29.61F
GLENCOE        CLOUDY    42  31  64 NW17G29   29.55S
FARIBAULT      CLOUDY    41  30  65 NW13G20   29.54S
OWATONNA       CLOUDY    39  28  65 NW26      29.55S
WASECA         CLOUDY    39  30  70 NW23G35   29.57F
ALBERT LEA     CLOUDY    41  30  65 NW16G28   29.56S
$$
MNZ078>079-086>088-094>096-201900-
   Southeast Minnesota

CITY           SKY/WX    TMP DP  RH WIND       PRES   REMARKS
ROCHESTER      CLOUDY    38  30  73 NW28G36   29.52R
6HR MIN TEMP:  36; 6HR MAX TEMP:  38;

RED WING       CLOUDY    41  28  60 NW9G17    29.50S
STANTON        CLOUDY    41  29  62 W23G29    29.52S
DODGE CENTER   CLOUDY    39  28  65 NW24G31   29.52S
WINONA         CLOUDY    41  32  70 NW16      29.49S
AUSTIN         CLOUDY    39  28  65 NW24G36   29.55R
PRESTON        CLOUDY    37  30  75 NW20G28   29.52S
$$
ABBREVIATIONS USED IN REMARKS
   TC - TEMPERATURES IN CELSIUS
  WCI - WIND CHILL INDEX
   HX - HEAT INDEX
  VSB - VISIBILITY
$$


USA.gov is the U.S. government's official web portal to all federal, state and local government web resources and services.